FENGYUN 4A

Last updated on Jan. 19, 2020, 4:36 a.m. UTC

1 41882U 16077A   20018.03963061 -.00000335  00000-0  00000-0 0  9995
2 41882   0.0264   4.7586 0004130  86.8100 144.0996  1.00279717 11490
UTC
Height (km)
Latitude
Longitude
Inclination
Orbital Period
UTC large
Height (km)
Speed (km/s)
/
Latitude / Longitude
Inclination (degrees)
Orbital Period (minutes)
Azimuth
Elevation
Range (km)
Doppler Factor
iOS Compass Heading
iOS Angle

Next 30 passes for location: Hong Kong

Rise time Rise Azimuth (degrees) Set time Set Azimuth (degrees) Duration Max altitude (degrees)

No matching passes for this satellites